Shaw AFB, SC

11:40 AM EDT on March 27, 2017 (GMT -0400)
Shaw Air Force Base

Weather History for KSSC - October, 2013

Change the Weather History Date:

Monday, October 21, 2013

  Actual Average Record
Temperature  
Mean Temperature 58 °F -  
Max Temperature 72 °F 71 °F 86 °F (2005)
Min Temperature 46 °F 49 °F 40 °F (2011)
Degree Days  
Heating Degree Days 7    
Growing Degree Days 8 (Base 50)    
Moisture  
Dew Point 51 °F    
Average Humidity 79    
Maximum Humidity 94    
Minimum Humidity 52    
Precipitation  
Precipitation 0.00 in - - ()
Sea Level Pressure  
Sea Level Pressure 30.08 in    
Wind  
Wind Speed 4 mph (ENE)    
Max Wind Speed 7 mph    
Max Gust Speed -    
Visibility 10 miles    
Events      
Averages and records for this station are not official NWS values.
T = Trace of Precipitation, MM = Missing Value Source: NWS Daily Summary

Daily Weather History Graph

Daily Weather History Graph

Search for Another Location

Airport or City:

Trip Planner

Search our weather history database for the weather conditions in past years. The results will help you decide how hot, cold, wet, or windy it might be!

Date:

Astronomy

Oct. 21, 2013 Rise Set
Actual Time 7:31 AM EDT 6:40 PM EDT
Civil Twilight 7:06 AM EDT 7:05 PM EDT
Nautical Twilight 6:37 AM EDT 7:34 PM EDT
Astronomical Twilight 6:08 AM EDT 8:03 PM EDT
Moon 8:38 PM EDT (10/21) 9:59 AM EDT (10/21)
Length of Visible Light 11h 59m
Length of Day
11h 08m
Waning Gibbous, 93% of the Moon is Illuminated
Oct 21
Waning Gibbous
Oct 26
Last Quarter
Nov 3
New
Nov 10
First Quarter
Nov 17
Full

Hourly Weather History & Observations

Time (EDT) Temp. Dew Point Humidity Pressure Visibility Wind Dir Wind Speed Gust Speed Precip Events Conditions
12:58 AM 52.7 °F 49.3 °F 88% 30.08 in 10.0 mi NE 4.6 mph - N/A   Clear
1:58 AM 50.2 °F 47.3 °F 90% 30.08 in 10.0 mi NNE 3.5 mph - N/A   Clear
2:58 AM 49.1 °F 45.9 °F 89% 30.08 in 10.0 mi NNE 4.6 mph - N/A   Clear
3:58 AM 49.1 °F 46.2 °F 90% 30.08 in 10.0 mi NNE 5.8 mph - N/A   Clear
4:58 AM 47.7 °F 45.1 °F 91% 30.09 in 10.0 mi NE 5.8 mph - N/A   Clear
5:58 AM 48.2 °F 45.3 °F 90% 30.11 in 10.0 mi NNE 4.6 mph - N/A   Clear
6:58 AM 46.8 °F 44.6 °F 92% 30.11 in 10.0 mi NNE 5.8 mph - N/A   Partly Cloudy
7:58 AM 47.1 °F 45.0 °F 92% 30.11 in 10.0 mi NNE 6.9 mph - N/A   Partly Cloudy
8:36 AM 50.0 °F 48.2 °F 94% 30.11 in 10.0 mi NE 3.5 mph - N/A   Light Drizzle
8:58 AM 51.8 °F 48.7 °F 89% 30.12 in 10.0 mi NE 4.6 mph - N/A   Mostly Cloudy
9:58 AM 54.9 °F 51.3 °F 88% 30.14 in 10.0 mi ENE 5.8 mph - N/A   Clear
10:58 AM 58.3 °F 51.8 °F 79% 30.14 in 10.0 mi East 4.6 mph - N/A   Clear
11:58 AM 61.9 °F 53.2 °F 73% 30.14 in 10.0 mi ENE 4.6 mph - N/A   Clear
12:58 PM 65.8 °F 54.3 °F 66% 30.12 in 10.0 mi ESE 6.9 mph - N/A   Clear
1:58 PM 70.3 °F 53.4 °F 55% 30.08 in 10.0 mi ESE 3.5 mph - N/A   Clear
2:58 PM 70.2 °F 52.0 °F 52% 30.06 in 10.0 mi South 4.6 mph - N/A   Clear
3:58 PM 69.4 °F 51.6 °F 53% 30.06 in 10.0 mi SSW 3.5 mph - N/A   Clear
4:58 PM 69.8 °F 51.8 °F 53% 30.04 in 10.0 mi NNE 2.3 mph - N/A   Clear
5:58 PM 66.9 °F 52.3 °F 59% 30.04 in 10.0 mi North 2.3 mph - N/A   Clear
6:58 PM 63.9 °F 55.2 °F 73% 30.03 in 10.0 mi Calm Calm - N/A   Clear
7:58 PM 61.9 °F 55.4 °F 79% 30.04 in 10.0 mi Calm Calm - N/A   Clear
8:58 PM 60.6 °F 55.6 °F 83% 30.03 in 10.0 mi Calm Calm - N/A   Clear
9:58 PM 59.0 °F 55.8 °F 89% 30.03 in 10.0 mi NE 3.5 mph - N/A   Clear
10:58 PM 59.0 °F 55.0 °F 87% 30.01 in 10.0 mi East 2.3 mph - N/A   Scattered Clouds
11:58 PM 59.0 °F 55.6 °F 88% 30.03 in 10.0 mi South 1.2 mph - N/A   Scattered Clouds